Aérodrome :
LOGIN :

S'inscrire | Disclaimer

   EN    FR    IT 

 










Légende :    VFR   VFR Marginal   IFR   IFR Intensif   IFR Très Intensif
Visi : 
Plafond : 
>= 8 km
>= 3000ft
5 à 8 km
1000 à 3000 ft
1500m à 5 km
500 à 1000 ft
800 à 1500m
200 à 500 ft
< 800m
< 200 ft
Symboles :   Orages  Brouillard  Fortes neiges  Fortes précipitations  Vent > 20 kt
SIGMETs :   Divers  Orages  Givrage  Turbulence  Onde Orograph.  Cendres Volcan.







- Altitude de l'aérodrome : 202 ft
- Code IATA : SQZ


EGXP - RAF Scampton

DERNIER METAR :
  • 210450Z AUTO 26004KT 9999 // FEW034/// BKN045/// 17/16 Q1018

METARs EXPIRÉS :
  • 210350Z AUTO 28005KT 9999 // BKN048/// 18/16 Q1018
  • 210250Z AUTO 27005KT 9999 // BKN033/// SCT049/// 18/17 Q1018

TAF TAF EGXP
Valide du 21 à 06h jusqu'au 21 à 15h UTC


210436Z 2106/2115 26006KT 9999 BKN035
PROB30
TEMPO 2108/2111 SCT016
Pas de NOTAMs connus pour ce terrain.



MET'MAP, la Météo Aéronautique d'un coup d'oeil ! - Copyright ORBIFLY Décembre 2007 - Disclaimer

ORBIFLY MET'MAP TEAM :

Programmation & Développement : Alexandra Zaïnal
Conception & Développement : Baudouin d'Aumeries
Co-Programmation & Développement : Marc-Olivier Méhu
Soutien technique & logistique : Manuel Goepfert

Contact : metmap@orbifly.com




SOURCES & CREDITS :

   NOAA